Home   Weather   Taipei   Past weeks

Flag for Taiwan Past Weather in Taipei, Taiwan — Yesterday and Last 2 Weeks

Now
55 °F

Passing clouds.


Feels Like: 52 °F
Forecast: 53 / 59 °F
Wind: 14 mph from East

Location: Sungshan / Taipei

Current Time: Jan 21, 2017 at 2:27:41 am

Latest Report: Jan 21, 2017 at 1:00 am


Visibility: N/A

Pressure: 30.36 "Hg

Humidity: 55%

Dew Point: 39 °F

Location of TaipeiLocation

Past Weather in Taipei — Graph

°F

Taipei Temperature Yesterday

Maximum temperature yesterday: 64 °F (at 12:07 am)
Minimum temperature yesterday: 54 °F (at 2:30 pm)
Average temperature yesterday: 57 °F

High & Low Weather Summary for the Past Weeks

 TemperatureHumidityPressure
High79 °F (Jan 7, 1:00 pm)88% (Jan 7, 4:00 am)30.36 "Hg (Jan 7, 4:00 am)
Low54 °F (Jan 14, 5:00 am)55% (Jan 20, 6:30 pm)29.83 "Hg (Jan 7, 2:30 pm)
Average64 °F74%30.10 "Hg
* Reported Jan 6 1:00 am — Jan 21 1:00 am, Taipei, Weather by CustomWeather, © 2017

Note: Actual official high and low records may vary slightly from our data, if they occured in-between our weather recording intervals... More about our weather records

Advertising

Taipei Weather History for the Previous 24 Hours

Scroll right to see more
 ConditionsComfort  
Time TempWeatherWind HumidityBarometerVisibility
1:00 am
Sat, Jan 21
55 °FPassing clouds.14 mph55%30.36 "HgN/A
12:00 am55 °FPassing clouds.13 mph55%30.36 "HgN/A
11:30 pm
Fri, Jan 20
55 °FPassing clouds.13 mph55%30.36 "HgN/A
11:00 pm55 °FPassing clouds.12 mph55%30.36 "HgN/A
10:30 pm55 °FPassing clouds.13 mph59%30.36 "HgN/A
10:00 pm55 °FPassing clouds.10 mph55%30.36 "Hg5 mi
9:30 pm54 °FPassing clouds.15 mph58%30.36 "Hg5 mi
9:00 pm55 °FPassing clouds.10 mph59%30.36 "Hg5 mi
8:30 pm55 °FPassing clouds.14 mph55%30.36 "HgN/A
8:00 pm54 °FPassing clouds.15 mph58%30.36 "Hg6 mi
7:30 pm55 °FPassing clouds.12 mph55%30.36 "Hg6 mi
7:00 pm55 °FPassing clouds.12 mph55%30.33 "HgN/A
6:30 pm55 °FPassing clouds.12 mph55%30.33 "HgN/A
6:00 pm54 °FPassing clouds.16 mph58%30.33 "Hg5 mi
5:30 pm54 °FPassing clouds.15 mph58%30.33 "Hg4 mi
5:00 pm54 °FPartly sunny.14 mph58%30.33 "Hg4 mi
4:30 pm54 °FPartly sunny.15 mph63%30.30 "Hg4 mi
4:00 pm54 °FPartly sunny.14 mph63%30.30 "Hg4 mi
3:30 pm54 °FPartly sunny.15 mph63%30.30 "Hg4 mi
3:00 pm54 °FPartly sunny.13 mph67%30.30 "Hg4 mi
2:30 pm54 °FPartly sunny.12 mph67%30.30 "Hg4 mi
2:00 pm55 °FPartly sunny.14 mph67%30.30 "Hg5 mi
1:30 pm55 °FPartly sunny.12 mph67%30.30 "HgN/A
1:00 pm55 °FPartly sunny.10 mph72%30.30 "HgN/A
12:30 pm57 °FPartly sunny.13 mph67%30.30 "HgN/A
12:00 pm57 °FPartly sunny.13 mph67%30.30 "HgN/A
11:30 am57 °FPartly sunny.13 mph72%30.33 "HgN/A
11:00 am57 °FPartly sunny.9 mph72%30.33 "HgN/A
10:30 am57 °FPartly sunny.10 mph72%30.33 "HgN/A
10:00 am59 °FPartly sunny.12 mph68%30.33 "HgN/A
9:30 am59 °FPartly sunny.7 mph68%30.33 "HgN/A
9:00 am59 °FPartly sunny.8 mph72%30.33 "HgN/A
8:30 am59 °FPartly sunny.8 mph72%30.30 "HgN/A
8:00 am59 °FPartly sunny.3 mph72%30.30 "HgN/A
7:30 am59 °FPartly sunny.7 mph77%30.27 "HgN/A
7:00 am59 °FPartly sunny.5 mph72%30.27 "HgN/A
6:30 am59 °FPassing clouds.5 mph77%30.27 "HgN/A
6:00 am59 °FPassing clouds.3 mph72%30.24 "HgN/A
5:52 am59 °FPassing clouds.5 mph72%30.24 "HgN/A
5:00 am61 °FLight rain. Passing clouds.3 mph68%30.24 "HgN/A
4:13 am61 °FLight rain. Passing clouds.8 mph68%30.21 "HgN/A
4:00 am61 °FLight rain. Passing clouds.9 mph72%30.21 "HgN/A
3:00 am63 °FLight rain. Passing clouds.7 mph68%30.18 "Hg4 mi
2:00 am63 °FLight rain. Passing clouds.5 mph83%30.18 "Hg5 mi
Weather by CustomWeather, © 2017

See weather overviewHow to use our weather pages